Regional Weather Roundup
Issued by NWS

Home | Current Version | Previous Version | Graphics & Text | Print | Product List | Glossary Off
Versions: 1 2 3 4 5 6 7 8 9 10 11 12 13 14 15 16 17 18 19 20 21 22 23 24 25 26 27 28 29 30 31 32 33 34 35 36 37 38 39 40 41 42 43 44 45 46 47 48 49 50

000
ASUS43 KMKX 221511
RWRWI

WISCONSIN REGIONAL WEATHER ROUNDUP
NATIONAL WEATHER SERVICE MILWAUKEE/SULLIVAN WI
1000 AM CDT THU JUN 22 2017

NOTE: "FAIR" INDICATES FEW OR NO CLOUDS BELOW 12,000 FEET WITH NO
SIGNIFICANT WEATHER AND/OR OBSTRUCTIONS TO VISIBILITY.

WIZ001-002-006>008-014>016-023>028-221600-
NORTHWEST WISCONSIN

CITY           SKY/WX    TMP DP  RH WIND       PRES   REMARKS
SUPERIOR ARPT  NOT AVBL
ASHLAND        CLOUDY    68  61  78 CALM      29.68F
HAYWARD        CLOUDY    66  61  84 CALM      29.69F
SIREN          PTSUNNY   66  62  89 CALM      29.73R
CUMBERLAND     LGT RAIN  64  61  88 E6        29.70F
RICE LAKE      CLOUDY    66  63  88 CALM      29.74S
CHETEK           N/A     66  64  91 CALM      29.72R
LADYSMITH      CLOUDY    68  64  85 W7        29.75S
EAU CLAIRE     PTSUNNY   69  68  96 SW5       29.73R
MENOMONIE      CLOUDY    70  66  87 CALM      29.74R
NEW RICHMOND   LGT RAIN  67  64  87 E6        29.71F
OSCEOLA        CLOUDY    68  68 100 SE5       29.72F
$$

WIZ003>005-009-010-017-018-221600-
NORTH CENTRAL WISCONSIN

CITY           SKY/WX    TMP DP  RH WIND       PRES   REMARKS
MANITOWISH WTR CLOUDY    66  64  94 W7        29.72S
ARBOR VITAE    PTSUNNY   68  64  86 W7        29.72F
WOODRUFF       PTSUNNY   68  64  86 W7        29.72F
RHINELANDER    CLOUDY    71  65  81 SW8       29.73F
EAGLE RIVER    CLOUDY    68  60  77 W7G17     29.71F
LAND O LAKES   CLOUDY    67  61  80 W6        29.73S
PHILLIPS       CLOUDY    65  64  96 NW3       29.71F
TOMAHAWK       NOT AVBL
MEDFORD        CLOUDY    69  65  87 W5        29.72F
MERRILL        CLOUDY    71  67  88 CALM      29.73F
$$

WIZ029-030-035-036-043>047-221600-
CENTRAL WISCONSIN

CITY           SKY/WX    TMP DP  RH WIND       PRES   REMARKS
WAUSAU         LGT RAIN  68  66  93 SW6       29.72S
MOSINEE        TSTM      66  66 100 SW20G26   29.76R
MARSHFIELD     LGT RAIN  67  63  87 SW7       29.75R
STEVENS POINT  CLOUDY    69  68  96 SW5       29.74F
WAUPACA        CLOUDY    76  70  81 SW10      29.73S
WAUTOMA        CLOUDY    74  69  85 SW7       29.75R
WISC RAPIDS    CLOUDY    72  67  84 SW7       29.74S
CAMP DOUGLAS   CLOUDY    72  68  88 S5        29.73S
$$

WIZ011>013-019>022-031-037>040-048>050-221600-
NORTHEAST WISCONSIN

CITY           SKY/WX    TMP DP  RH WIND       PRES   REMARKS
ANTIGO         CLOUDY    70  66  86 W9        29.74S
SHAWANO        CLOUDY    72  66  83 W6        29.73S
OCONTO         CLOUDY    74  67  78 W9        29.72R
STURGEON BAY     N/A     73  67  81 SW13        N/A
GREEN BAY      CLOUDY    74  70  87 SW6       29.73S
MANITOWOC      CLOUDY    72  68  87 SW8       29.73F
APPLETON       PTSUNNY   73  70  88 SW10      29.73S
CLINTONVILLE   CLOUDY    72  64  78 W7        29.73R
OSHKOSH        CLOUDY    74  68  81 S12       29.74S
$$

WIZ032>034-041-042-053>061-221600-
SOUTHWEST WISCONSIN

CITY           SKY/WX    TMP DP  RH WIND       PRES   REMARKS
LA CROSSE      CLOUDY    75  66  73 S12       29.71F
SPARTA         CLOUDY    73  67  81 SW3       29.74F
VIROQUA        CLOUDY    71  63  74 SW21G26   29.76F
BOSCOBEL       LGT RAIN  69  63  81 SW9       29.80R
PRAIRIE DU CHI DRIZZLE   65  64  96 CALM      29.81R
PLATTEVILLE    CLOUDY    72  67  86 NW6       29.83R
$$

WIZ056-057-062-063-064-067-068-221600-
SOUTH CENTRAL WISCONSIN

CITY           SKY/WX    TMP DP  RH WIND       PRES   REMARKS
REEDSBURG      CLOUDY    69  69 100 CALM      29.76R
BARABOO/DELLS  CLOUDY    70  67  91 CALM      29.76R
LONE ROCK      LGT RAIN  69  65  86 S15       29.76R
MINERAL POINT  CLOUDY    68  68 100 SW6       29.82R
MADISON        CLOUDY    71  68  90 CALM      29.78R
MIDDLETON      CLOUDY    71  69  92 SW3       29.78R
WATERTOWN      CLOUDY    73  70  91 SW5       29.77F
MONROE         CLOUDY    77  64  65 SW16      29.80R
JANESVILLE     PTSUNNY   79  66  65 SW12G17   29.78S HX  81
$$

WIZ051-052-058>065-066-070>072-221600-
SOUTHEAST WISCONSIN

CITY           SKY/WX    TMP DP  RH WIND       PRES   REMARKS
MILWAUKEE      CLOUDY    78  67  68 SW12      29.76F HX  80
WAUKESHA       PTSUNNY   73  64  73 SW9       29.79S
MILWAUKEE/TIMM MOSUNNY   75  64  69 CALM      29.78F
RACINE         CLOUDY    78  66  66 SW13G25   29.78F HX  80
KENOSHA        PTSUNNY   78  67  68 S18G28    29.78F HX  80
FOND DU LAC    PTSUNNY   75  66  73 S12       29.75S
SHEBOYGAN      CLOUDY    74  70  87 SW8       29.74F
WEST BEND      CLOUDY    72  68  88 S5        29.77F
JUNEAU         CLOUDY    72  67  86 S6        29.78S
$$

LSZ147-162-221600-
LAKE SUPERIOR

STATION/POSITION TIME  TEMP    WIND        PRES    WAVE
                       AIR SEA DIR/SP/G            HT/PER
                 (UTC) (F)     (DEG/KT/KT) (MB)    (FT/S)
W MID LAKE BUOY  1450   44 39  250/  8/  8 1004.8R   0
DEVILS ISLAND    1500   58     230/ 14/ 15 1004.7F
SAXON HARBOR     1430   68     240/  2/  5 1005.4F
$$

LMZ867-665-643>646-221600-
LAKE MICHIGAN

STATION/POSITION TIME  TEMP    WIND        PRES    WAVE
                       AIR SEA DIR/SP/G            HT/PER
                 (UTC) (F)     (DEG/KT/KT) (MB)    (FT/S)
CHAMBERS ISLAND  1440   69     190/  6/ 12 1005.8F
N MID LAKE BUOY  1450   58 54  200/ 14/ 16 1006.3F   3/ 5
NORTHPORT PIER   1440   70     250/  4/ 16 1006.1S
KEWAUNEE LAKESHO 1448   54     170/  9/ 10 1006.3F
SHEBOYGAN LAKESH 1500   71     230/  8/  9 1006.5F
PORT WASHINGTON  1430   64     200/  6/  9 1008.8S
ATWATER BUOY     1409   62 54  130/  8/ 10 1007.9F
MILWAUKEE LAKESH 1450   63     300/  3/  3   N/A
S MID LAKE BUOY  1450   67 61  180/ 16/ 19 1009.0F   2/ 4
KENOSHA   LAKESH 1500   78     200/ 15/ 20 1008.1
$$

TC  - TEMPERATURE IN CELSIUS
VSB - VISIBILITY IN STATUTE MILES
WCI - WIND CHILL INDEX
HX  - HEAT INDEX





USA.gov is the U.S. government's official web portal to all federal, state and local government web resources and services.